This demonstration page uses our WeatherBlox Daily Observations layout. Learn more.

Left ArrowRight Arrow

44.8408, -93.29828

Hourly Observations for February 28, 2015

Temp ( °F °C ) Dew Point ( °F °C ) Humidity (%) Winds ( mph kmh ) Pressure ( in mb ) Visibility ( mi km ) Precip ( " mm )
12:53 am 00:53 Clear 4 -15.6 -3 -19.4 73 73 SSW 6 9 30.59 1036 10 16 0.00 0.00
1:53 am 01:53 Clear 3 -16.1 -3 -19.4 76 76 SSW 7 11 30.59 1036 10 16 0.00 0.00
2:53 am 02:53 Clear 3 -16.1 -4 -20 72 72 S 6 9 30.58 1036 10 16 0.00 0.00
3:53 am 03:53 Clear 1 -17.2 -5 -20.6 75 75 SE 3 6 30.58 1036 10 16 0.00 0.00
4:53 am 04:53 Clear -1 -18.3 -6 -21.1 79 79 SE 6 9 30.59 1036 10 16 0.00 0.00
5:53 am 05:53 Clear -2 -18.9 -7 -21.7 79 79 SE 7 11 30.59 1036 10 16 0.00 0.00
6:53 am 06:53 Mostly Sunny -2 -18.9 -8 -22.2 75 75 SE 6 9 30.59 1036 10 16 0.00 0.00
7:53 am 07:53 Mostly Sunny -1 -18.3 -6 -21.1 79 79 SE 6 9 30.59 1036 10 16 0.00 0.00
8:53 am 08:53 Mostly Sunny 4 -15.6 -2 -18.9 76 76 S 3 6 30.60 1036 10 16 0.00 0.00
9:53 am 09:53 Mostly Sunny 11 -11.7 -1 -18.3 58 58 SSW 9 15 30.57 1035 10 16 0.00 0.00
10:53 am 10:53 Partly Cloudy 15 -9.4 1 -17.2 53 53 S 10 17 30.57 1035 10 16 0.00 0.00
11:53 am 11:53 Mostly Sunny 18 -7.8 2 -16.7 49 49 S 12 19 30.55 1034 10 16 0.00 0.00
12:53 pm 12:53 Sunny 19 -7.2 1 -17.2 45 45 S 14 22 30.51 1033 10 16 0.00 0.00
1:53 pm 13:53 Sunny 20 -6.7 3 -16.1 48 48 SSE 16 26 30.48 1032 10 16 0.00 0.00
2:53 pm 14:53 Partly Cloudy 19 -7.2 3 -16.1 49 49 S 18 30 30.46 1032 10 16 0.00 0.00
3:53 pm 15:53 Partly Cloudy 18 -7.8 2 -16.7 49 49 S 13 20 30.44 1031 10 16 0.00 0.00
4:53 pm 16:53 Mostly Cloudy 16 -8.9 2 -16.7 54 54 SSE 15 24 30.44 1031 10 16 0.00 0.00
5:53 pm 17:53 Mostly Cloudy 14 -10 3 -16.1 61 61 SSE 14 22 30.44 1031 10 16 0.00 0.00
6:53 pm 18:53 Mostly Cloudy 14 -10 2 -16.7 58 58 S 13 20 30.44 1031 10 16 0.00 0.00
7:53 pm 19:53 Mostly Cloudy 13 -10.6 2 -16.7 61 61 S 10 17 30.43 1030 10 16 0.00 0.00
8:53 pm 20:53 Mostly Cloudy 13 -10.6 2 -16.7 61 61 SSE 12 19 30.40 1029 10 16 0.00 0.00
9:53 pm 21:53 Partly Cloudy 13 -10.6 2 -16.7 61 61 S 10 17 30.39 1029 10 16 0.00 0.00
10:53 pm 22:53 Cloudy 13 -10.6 4 -15.6 67 67 SSE 7 11 30.37 1029 9 14 0.00 0.00
11:53 pm 23:53 Mostly Cloudy 14 -10 6 -14.4 71 71 S 9 15 30.35 1028 9 14 0.00 0.00

Powered by AerisWeather